Wind_Speed
120 121 121 121 121 121 122 122 122 122 122 122 122 122 122 122 122 122 122 122 122 122 122 122 121 121 121 121 120 120 120 119 118 117 116 115 114 114 114 114 113 113 112 112 111 111 110 110 109 107 105 103 101 100 100 99 98 97 96 94 93 91 89 87 84 82 80 78 77 75 74 73 72 70 69 67 65 64 63 62 61 60 60 59 59 58
121 121 121 121 122 122 123 122 122 123 123 123 123 123 123 123 123 123 123 123 123 122 122 122 122 122 122 121 121 120 120 119 118 117 116 115 114 114 113 113 111 110 110 109 109 109 109 108 108 107 105 104 102 101 100 99 98 97 96 94 93 91 89 87 84 82 80 78 76 74 73 72 71 70 68 67 65 64 63 62 61 61 60 59 59 58
120 121 121 121 121 122 123 123 123 123 123 123 123 123 123 123 123 123 123 123 123 123 122 122 122 122 122 121 121 120 120 119 118 117 116 115 114 113 112 111 110 109 108 108 107 107 107 107 107 106 105 104 103 102 101 100 98 97 96 94 93 91 89 86 84 82 80 77 75 74 72 71 70 69 68 66 65 64 63 62 61 61 60 60 59 59
119 120 121 121 121 122 122 122 123 123 123 123 123 123 123 124 124 124 124 123 123 123 122 122 122 121 121 121 120 120 119 118 117 116 115 114 113 112 111 110 109 109 108 107 107 106 106 106 105 105 104 104 103 102 101 99 98 97 95 94 92 90 88 86 83 81 79 77 75 73 71 70 69 68 67 66 65 64 63 62 61 61 61 60 60 60
118 118 119 120 120 121 121 122 122 122 122 123 123 123 123 123 123 123 123 123 123 122 122 122 121 121 120 120 119 119 118 117 116 115 114 113 112 111 110 109 109 108 108 107 107 106 105 105 104 104 103 103 102 101 100 99 97 96 94 93 91 89 87 85 83 81 79 76 74 72 70 69 68 67 66 65 65 64 63 62 62 61 61 61 61 61
116 116 117 118 119 120 120 120 121 121 121 122 122 122 122 122 122 122 122 122 122 122 121 121 120 120 119 118 118 117 117 116 115 115 114 113 111 110 109 108 108 107 107 107 106 105 105 104 103 103 103 102 102 101 99 98 96 95 93 91 90 88 86 84 82 80 78 76 74 71 70 68 67 66 65 64 64 64 63 63 62 62 61 61 61 61
114 114 115 116 117 117 118 118 119 119 120 120 120 120 120 120 120 120 121 120 120 120 120 119 119 118 118 117 117 116 115 114 114 114 113 112 111 110 108 107 107 106 106 106 105 105 104 103 103 102 102 101 101 100 98 97 95 94 92 90 89 87 85 84 82 79 77 75 73 71 69 67 66 65 64 64 64 64 64 63 63 62 62 61 61 62
112 112 113 114 114 115 115 116 116 117 117 117 118 118 118 118 118 118 118 118 118 118 118 118 117 117 116 116 115 114 114 113 113 112 112 111 110 109 108 107 106 105 105 105 104 104 103 103 102 102 101 100 99 98 97 95 94 92 90 89 87 86 84 83 81 79 76 74 72 70 68 67 66 65 64 63 64 64 64 64 63 63 62 62 61 61
110 110 111 111 112 112 113 113 114 114 114 114 115 115 115 116 116 116 116 116 116 116 116 115 115 115 115 114 113 113 112 112 111 111 110 110 109 109 108 107 105 105 104 103 103 103 102 102 101 101 100 99 98 96 95 93 92 91 89 88 86 85 83 81 80 78 76 74 72 70 68 67 66 65 64 64 64 64 64 64 64 63 63 62 61 61
108 109 109 110 110 110 111 111 112 112 112 112 112 113 113 113 113 114 114 114 114 114 113 113 113 113 113 112 112 111 111 110 110 109 109 108 108 107 107 106 105 104 103 103 102 101 101 100 100 99 98 97 96 95 93 92 91 89 88 86 85 84 82 80 79 77 75 74 72 70 69 68 67 66 65 65 64 64 64 65 65 64 64 63 62 61
107 107 108 108 108 109 109 110 110 110 110 110 111 111 111 111 111 111 112 112 112 112 111 111 111 111 110 110 110 110 109 108 108 108 107 107 106 106 106 105 104 103 103 102 101 100 100 99 98 97 96 95 94 93 92 91 89 88 87 85 84 82 81 79 78 76 75 74 73 71 70 69 68 67 67 66 66 65 65 66 66 66 65 65 64 63
107 107 107 107 107 108 108 108 109 109 109 109 110 110 110 110 110 109 110 110 110 110 110 109 109 109 108 108 108 108 107 107 106 106 106 105 105 105 104 104 103 102 102 101 100 99 98 97 97 96 95 94 93 92 91 90 88 87 86 84 83 81 80 79 78 77 75 74 73 73 72 71 70 69 69 68 68 67 67 67 67 67 67 67 66 65
106 106 106 106 107 107 107 108 108 108 108 109 109 109 110 109 109 108 108 108 108 108 108 108 107 107 107 106 106 106 105 105 105 105 104 104 104 103 103 102 102 101 100 99 99 98 97 96 95 94 93 93 92 91 90 88 87 86 85 83 82 81 80 79 78 77 76 76 75 74 73 73 72 72 71 71 70 70 69 69 69 69 69 69 68 68
106 106 106 106 106 106 107 107 107 107 108 108 108 108 108 108 108 107 107 107 107 106 106 105 105 105 105 105 104 104 104 103 103 103 103 103 102 102 101 101 100 100 99 98 98 97 96 95 94 94 93 92 91 90 89 88 87 85 84 83 82 81 80 79 79 78 78 77 77 76 76 75 75 74 74 73 73 72 72 71 71 71 71 71 71 70
105 105 105 105 106 106 106 106 106 106 107 107 107 107 107 106 106 106 106 106 105 105 104 104 104 104 103 103 103 103 102 102 102 101 101 101 101 100 100 99 99 98 98 97 97 96 96 95 94 93 93 92 91 90 89 87 86 85 84 83 83 82 81 81 80 80 80 79 79 79 78 78 77 77 76 76 75 75 75 74 74 74 73 73 73 72
104 104 104 104 105 105 105 105 105 105 105 105 105 105 105 105 105 104 104 104 103 103 102 102 102 102 102 102 101 101 101 101 100 100 100 100 99 99 98 98 98 98 97 96 96 96 95 95 94 93 92 92 91 90 89 88 87 86 85 85 84 84 83 83 82 82 82 82 81 81 81 80 80 80 79 79 78 78 77 77 76 76 76 75 75 75
103 103 103 103 103 104 103 103 103 103 103 103 103 103 103 102 102 102 102 102 101 101 101 100 100 100 100 100 101 100 100 99 99 99 98 98 98 98 97 97 97 97 97 96 96 96 95 95 94 94 93 92 92 91 90 89 88 88 87 87 86 86 85 85 85 84 84 84 84 83 83 83 82 82 81 81 80 80 79 79 78 78 77 77 77 77
102 102 101 101 101 101 101 101 101 101 101 101 101 101 100 100 100 100 100 100 99 99 99 99 98 98 98 99 100 100 99 98 98 98 97 97 97 97 97 97 97 97 97 97 96 96 96 96 95 94 94 93 93 92 91 91 90 90 89 89 88 88 88 87 87 87 86 86 86 85 85 85 84 84 83 83 82 82 81 80 80 79 79 78 78 78
99 99 99 99 99 99 99 99 99 99 99 99 99 99 99 99 99 98 98 98 98 98 98 98 98 98 98 98 99 99 98 98 97 97 97 97 97 97 97 97 97 97 97 97 97 97 97 97 96 96 95 95 94 94 93 93 92 92 91 91 90 90 90 89 89 89 88 88 87 87 87 87 86 86 85 85 84 83 83 82 81 81 80 79 79 79
97 97 97 97 97 97 97 97 98 98 98 98 98 97 98 98 98 98 98 98 98 98 97 97 97 97 98 98 98 98 98 97 97 97 97 97 97 97 97 98 98 98 98 98 98 98 98 98 98 97 97 97 96 96 95 94 94 93 93 93 92 92 92 91 91 90 90 90 89 89 88 88 88 87 87 86 85 85 84 84 83 82 81 81 80 80
94 95 95 95 95 95 96 96 97 97 97 97 97 97 97 97 97 97 97 97 97 97 97 97 97 97 97 98 98 98 98 98 98 98 98 98 98 98 99 99 99 99 100 99 99 99 99 99 99 99 99 98 98 98 97 96 96 95 95 94 94 94 93 93 93 92 92 91 91 90 90 89 89 88 88 87 87 86 86 85 84 84 83 82 82 81
93 93 94 94 94 94 95 96 96 96 96 96 96 97 97 97 97 97 98 98 97 98 98 98 98 98 98 98 99 99 99 98 99 99 98 98 99 100 100 100 100 100 101 101 100 100 100 101 101 100 100 100 100 99 99 98 98 97 97 97 96 96 95 95 94 94 93 92 92 91 91 91 90 90 89 89 88 87 87 87 86 85 85 84 84 83
92 92 93 93 94 94 95 95 96 96 96 96 97 97 97 97 97 98 98 98 98 98 98 98 98 98 98 99 99 100 100 99 99 99 99 100 100 101 101 101 101 102 102 102 102 102 102 102 102 102 102 102 102 101 101 101 100 100 99 99 98 98 97 96 96 95 95 94 93 93 93 92 92 91 91 90 89 89 89 88 88 87 87 86 86 85
92 93 93 94 94 94 95 95 96 96 97 97 97 98 98 98 98 98 98 98 99 99 99 99 99 99 100 100 100 101 101 101 101 101 101 102 102 102 102 102 103 104 104 104 103 103 103 104 104 104 104 104 103 103 103 103 102 102 102 101 101 100 100 99 98 97 97 96 95 95 94 94 93 93 92 92 91 91 91 90 90 90 89 89 88 87
93 93 94 94 95 95 95 96 96 97 97 98 98 98 99 99 99 99 99 99 100 100 101 101 101 101 102 102 102 102 103 103 103 103 103 104 104 104 104 104 105 106 106 106 105 105 105 105 106 106 106 106 106 105 105 105 105 105 105 104 104 103 103 102 101 100 99 98 98 97 97 96 96 95 95 94 94 93 93 93 93 92 92 91 91 90
93 94 94 95 95 96 96 97 97 98 98 99 99 100 100 100 100 100 101 101 102 102 102 102 103 103 103 103 103 105 105 105 105 106 106 106 106 106 106 106 107 107 108 108 107 107 107 107 107 107 107 108 108 108 108 108 107 107 107 107 107 107 106 105 104 103 102 102 101 100 99 99 98 98 97 97 96 96 96 96 96 95 95 94 94 93
95 95 95 96 96 97 98 98 99 99 100 100 101 101 101 102 102 102 103 104 104 104 104 105 105 105 105 105 106 107 107 108 108 108 109 109 108 109 109 109 109 109 110 110 110 109 109 109 109 109 109 110 110 110 110 110 110 110 110 110 110 110 109 108 108 107 106 105 104 103 103 102 101 101 100 100 99 99 99 99 98 98 98 97 97 96
96 97 97 98 98 99 100 100 101 101 102 102 103 103 103 103 104 104 105 106 105 105 106 107 107 107 107 108 108 108 109 110 111 111 111 111 111 112 112 111 111 111 112 112 112 112 111 111 111 112 112 112 112 112 113 113 113 113 113 113 113 113 112 112 111 110 109 108 108 107 106 105 105 104 103 103 102 102 102 102 101 101 101 100 99 99
99 99 100 100 101 101 102 102 103 103 104 105 105 106 106 106 106 107 108 108 107 108 108 109 109 110 110 110 110 111 111 112 113 114 114 113 114 115 115 114 113 114 114 115 114 114 114 113 114 114 114 114 114 114 115 115 115 116 116 116 116 116 115 114 114 113 113 112 111 110 110 109 108 107 107 106 105 105 105 105 104 104 103 103 102 101
101 101 102 102 103 104 104 105 105 106 106 107 107 108 108 108 109 109 110 110 110 110 111 111 111 112 112 112 112 113 114 115 116 116 116 116 117 117 117 116 116 116 116 116 116 116 116 116 116 116 116 116 116 117 117 117 118 118 119 119 119 118 118 117 117 116 116 115 115 114 113 112 111 111 110 109 109 108 108 107 107 106 106 105 104 104
102 103 104 104 105 105 106 106 107 108 108 109 109 110 110 111 111 111 112 112 112 112 112 113 113 113 113 114 114 115 116 117 118 117 117 118 119 119 119 118 118 118 119 118 118 118 119 118 118 117 117 118 118 119 119 119 120 120 121 121 121 121 120 120 120 119 119 118 118 117 116 115 115 114 113 112 112 111 110 110 110 109 108 107 107 106
104 104 105 106 106 107 108 108 109 109 110 110 111 112 112 112 112 113 113 113 113 114 114 114 114 115 115 115 116 117 118 119 119 119 119 119 120 120 120 119 120 120 120 120 119 119 120 120 119 119 119 119 120 120 121 121 121 122 122 123 123 123 123 122 122 121 121 121 120 120 119 118 118 117 116 115 114 114 113 113 112 111 110 109 109 108
105 106 106 107 108 108 109 110 110 111 111 112 112 113 113 113 114 114 114 115 115 115 115 115 116 116 116 116 117 117 118 120 120 120 120 120 120 121 120 120 120 120 121 120 120 119 119 120 119 119 119 120 120 121 122 122 123 123 124 124 125 125 125 124 124 124 123 123 122 122 121 120 120 119 118 118 117 116 116 115 114 113 112 112 111 110
106 107 108 108 109 109 110 111 111 112 112 113 113 114 114 114 115 115 115 115 115 116 116 116 116 116 117 117 117 118 119 119 120 120 119 119 120 120 120 120 119 119 120 120 119 119 118 118 119 119 119 119 120 121 122 123 124 124 124 125 126 126 126 126 126 126 125 125 124 123 123 122 122 121 120 120 119 118 118 117 116 115 115 114 113 112
107 108 109 109 110 110 111 111 112 112 113 113 114 114 114 115 115 115 115 116 116 116 116 116 116 116 116 117 117 118 118 119 119 118 118 118 118 118 118 118 118 118 118 118 118 118 117 117 117 117 118 118 119 120 121 122 123 124 124 125 125 126 126 126 126 126 126 126 125 125 124 123 123 122 122 121 120 120 119 119 118 117 117 116 115 115
108 108 109 109 110 110 111 111 112 112 112 113 113 113 114 114 114 114 115 115 115 115 115 115 115 115 115 115 116 116 117 117 117 116 116 116 116 116 116 116 115 115 116 116 115 115 115 115 115 115 115 116 117 118 119 120 121 121 122 123 123 124 124 125 125 125 126 125 125 125 124 124 123 122 122 121 121 120 120 119 119 118 118 117 117 116
108 108 109 109 109 109 110 110 110 111 111 111 111 112 112 112 112 112 113 113 113 113 113 113 113 113 113 113 113 113 114 114 114 113 113 113 113 112 112 112 112 112 112 112 112 112 112 112 112 112 113 114 115 115 116 117 117 118 119 119 120 121 121 122 122 123 123 124 124 123 123 122 122 121 121 120 120 120 119 119 119 118 118 118 118 117
107 107 107 107 107 108 108 108 108 108 108 109 109 109 109 109 109 109 110 110 110 110 110 110 110 110 110 110 110 110 110 110 110 110 109 109 109 108 108 108 108 108 108 108 108 108 108 109 109 109 110 110 110 111 112 112 113 114 114 115 115 116 117 117 118 119 119 120 120 120 120 120 119 119 119 118 118 118 118 117 117 117 117 117 117 117
106 105 106 106 106 105 106 106 106 106 106 106 106 106 106 106 106 106 106 106 106 106 106 106 106 106 106 106 106 106 105 105 105 105 105 105 104 104 104 104 104 104 103 103 104 104 104 104 104 105 105 106 106 106 107 107 108 109 109 109 110 111 112 112 113 114 114 114 115 115 115 115 115 115 115 115 115 115 115 115 115 115 115 115 115 115
104 104 104 103 103 103 103 103 103 103 103 103 102 102 102 102 102 103 103 103 102 102 102 102 102 102 102 102 102 102 101 101 101 100 100 100 100 100 99 99 99 99 99 99 99 99 100 100 100 100 100 101 101 102 102 103 103 103 104 105 105 106 106 107 107 108 108 109 109 110 110 110 110 110 110 110 110 110 110 110 111 111 111 112 112 113
101 101 101 101 100 100 100 100 100 99 99 99 99 99 99 99 99 99 99 99 99 99 99 98 98 98 98 98 98 98 97 97 96 96 96 96 96 95 95 95 95 95 95 95 95 96 96 96 96 96 96 96 96 97 97 98 99 99 99 100 101 101 101 102 102 102 103 103 103 104 104 104 105 105 105 105 105 105 105 105 106 106 107 107 108 109
98 98 98 98 97 97 97 96 96 96 96 96 95 95 95 95 95 95 96 96 95 95 95 95 95 95 95 95 95 94 94 93 93 92 92 92 92 92 91 91 91 91 92 92 92 92 92 92 92 92 92 92 92 92 93 94 94 95 95 95 96 96 96 97 97 98 98 98 98 98 99 99 99 99 99 100 100 100 100 100 101 102 102 103 103 104
95 95 94 94 94 94 93 93 93 93 92 92 92 92 92 92 92 92 92 93 92 92 92 92 92 92 92 92 91 91 90 90 89 89 89 88 88 88 88 88 88 88 88 88 88 88 88 88 88 88 88 88 88 88 89 89 90 90 91 91 91 92 92 93 93 93 93 93 93 94 94 94 94 94 94 94 95 95 96 96 96 97 98 98 99 99
92 92 91 91 91 90 90 90 90 90 89 89 89 89 89 89 89 89 89 89 89 89 89 89 88 88 89 88 88 88 87 87 86 86 85 85 85 85 84 84 84 84 84 84 84 85 85 85 85 84 84 84 84 84 85 85 86 86 86 86 87 87 88 89 89 89 89 89 89 89 89 89 89 89 89 90 90 91 91 92 92 93 93 94 94 94
89 89 89 88 88 88 88 87 87 87 87 86 86 86 86 86 86 86 86 86 86 86 85 85 85 85 85 85 85 85 84 84 83 82 82 82 81 81 81 81 81 81 81 81 81 81 81 81 81 81 81 81 81 81 81 81 81 82 82 82 82 83 83 84 84 85 85 85 85 85 84 84 84 85 85 86 86 87 88 88 88 89 89 89 90 90
87 87 86 86 86 85 85 85 85 84 84 84 83 83 83 83 83 83 83 82 82 82 82 82 82 82 82 82 82 82 81 81 80 80 79 78 78 78 78 78 78 78 77 77 77 77 78 78 78 78 78 78 77 77 77 77 78 78 78 78 78 79 79 80 80 81 81 81 81 80 80 80 80 80 81 82 82 83 84 84 85 85 85 86 86 86
84 84 84 84 83 83 83 83 82 82 82 81 81 81 80 80 80 80 80 79 79 79 79 79 79 79 79 79 78 78 78 78 77 76 76 75 75 75 74 74 74 74 74 74 74 74 74 74 75 75 75 75 74 74 74 74 74 74 74 74 75 75 76 76 77 77 77 77 77 76 76 76 76 76 77 78 78 79 80 80 81 81 82 82 82 83
81 81 81 81 81 80 80 80 80 79 79 79 78 78 78 78 77 77 77 77 76 76 76 76 76 76 76 75 75 75 75 75 74 73 73 72 72 71 71 71 71 70 70 70 70 70 70 71 71 71 71 71 71 71 71 71 71 71 71 71 71 72 72 73 73 73 73 73 73 72 72 72 72 72 73 74 75 75 76 77 77 77 78 78 79 79
78 78 78 78 78 78 77 77 77 77 77 76 76 76 75 75 75 75 75 74 74 74 74 73 73 73 73 73 72 72 72 71 71 70 70 69 69 68 68 67 67 67 67 66 67 67 67 67 67 67 67 67 67 67 67 67 67 68 68 68 68 69 69 70 70 70 70 69 69 68 68 68 68 68 69 70 71 72 72 73 73 74 74 75 75 76
75 75 75 75 75 75 74 74 74 74 74 73 73 73 73 72 72 72 72 72 71 71 71 71 70 70 70 70 69 69 69 68 68 67 67 66 66 65 64 64 63 63 63 63 63 63 63 63 63 63 63 63 63 63 64 64 64 65 65 65 65 66 66 66 66 66 66 65 65 64 64 64 64 65 65 66 67 68 68 69 70 70 71 71 71 72
72 72 72 72 72 72 72 72 71 71 71 71 70 70 70 69 69 69 69 69 69 68 68 68 68 67 67 67 67 66 66 65 65 64 64 63 63 62 61 61 60 60 60 60 59 59 59 59 59 60 59 59 59 59 60 60 61 61 62 62 62 62 63 63 62 62 62 61 61 60 60 60 60 61 62 62 63 64 65 66 66 67 67 67 68 68
Wind_Direction
277 277 277 278 278 278 278 278 278 278 278 279 279 279 279 279 280 280 280 280 281 281 281 281 282 282 282 282 283 283 283 284 284 284 285 285 285 285 285 285 286 287 287 288 289 289 289 290 290 291 291 291 291 291 291 291 290 290 290 290 289 289 289 289 288 288 287 287 286 285 284 284 283 283 282 281 281 280 279 278 277 277 276 275 274 273
278 278 278 278 278 278 278 278 278 279 279 279 279 279 279 280 280 280 280 280 281 281 281 281 282 282 282 282 283 283 283 283 284 284 284 284 284 284 284 285 285 286 286 286 287 287 288 288 289 289 290 290 290 290 289 289 289 289 289 289 288 288 288 288 287 287 286 286 285 284 283 283 282 282 281 280 280 279 278 277 276 275 275 274 273 272
278 278 278 278 278 278 278 278 279 279 279 279 279 280 280 280 280 280 280 281 281 281 281 281 282 282 282 282 283 283 283 283 283 283 283 284 284 284 284 284 284 284 284 285 285 285 286 286 287 287 288 288 288 288 288 288 288 288 288 287 287 287 287 286 286 286 285 285 284 283 282 281 281 280 280 279 279 278 277 276 275 274 273 273 272 271
277 277 277 277 278 278 278 278 278 279 279 279 279 280 280 280 280 280 281 281 281 281 281 281 282 282 282 282 282 283 283 283 283 283 283 283 283 283 283 283 283 283 283 283 283 283 284 284 285 285 286 286 286 286 287 287 286 286 286 286 286 286 285 285 285 285 284 284 283 282 281 280 280 279 278 278 277 277 276 275 274 273 272 271 271 270
276 276 276 277 277 277 278 278 278 278 279 279 279 279 280 280 280 280 280 281 281 281 281 281 281 282 282 282 282 282 282 282 282 282 282 282 282 282 282 282 282 282 282 282 282 282 282 283 283 284 284 284 285 285 285 285 285 285 285 285 285 284 284 284 284 284 283 282 282 281 280 279 278 278 277 277 276 275 275 274 273 272 271 270 270 269
276 276 276 276 277 277 277 278 278 278 278 279 279 279 279 279 280 280 280 280 280 281 281 281 281 281 281 281 281 281 281 281 281 281 281 281 281 281 281 281 281 281 281 281 281 281 282 282 282 282 283 283 283 283 284 284 284 284 284 284 283 283 283 283 283 282 282 281 281 280 279 278 277 277 276 275 275 274 273 273 272 271 270 269 269 268
276 276 276 277 277 277 277 277 278 278 278 278 279 279 279 279 279 279 279 280 280 280 280 280 280 280 281 281 281 281 281 281 281 281 281 281 281 280 280 280 280 280 280 280 280 281 281 281 281 282 282 282 282 282 283 283 283 283 283 282 282 282 282 282 282 281 281 280 280 279 278 277 277 276 275 274 274 273 272 272 271 271 270 269 268 268
277 277 277 277 277 277 277 277 277 278 278 278 278 278 278 279 279 279 279 279 279 279 279 280 280 280 280 280 280 280 280 280 280 280 280 280 280 280 280 280 280 279 280 280 280 280 281 281 281 281 281 281 281 282 282 282 282 282 281 281 281 281 281 281 281 281 280 280 279 278 277 277 276 275 274 273 273 272 272 271 271 270 270 269 268 268
277 277 277 277 277 277 277 277 277 277 277 277 277 278 278 278 278 278 278 278 278 278 279 279 279 279 279 279 279 279 279 279 279 279 279 280 280 280 280 280 280 280 280 280 280 280 280 280 280 280 280 281 281 281 281 281 281 281 281 280 280 280 280 280 280 280 279 279 278 278 277 276 275 275 274 273 272 272 271 271 271 270 270 269 269 268
277 277 277 277 277 277 277 277 277 277 277 277 277 277 277 277 277 277 278 278 278 278 278 278 278 278 279 279 279 279 279 279 279 279 279 279 279 280 280 280 280 280 280 280 280 280 280 280 280 280 280 280 280 280 280 280 280 280 280 280 280 280 279 279 279 279 279 278 278 277 277 276 275 274 274 273 272 272 271 271 271 271 270 270 270 269
277 277 277 277 278 277 277 277 277 277 277 277 277 277 277 277 277 277 277 277 277 278 278 278 278 278 278 278 279 279 279 279 279 279 279 279 279 279 280 280 280 280 280 280 280 280 280 279 279 279 279 279 279 279 279 279 279 279 279 279 279 279 279 279 279 278 278 278 277 277 276 276 275 275 274 273 273 272 272 271 271 271 271 271 270 270
278 278 278 278 278 278 277 277 277 277 277 277 277 277 277 277 277 277 277 277 277 277 278 278 278 278 278 278 278 279 279 279 279 279 279 279 279 279 279 279 280 280 280 280 279 279 279 279 279 279 279 279 279 279 279 279 279 279 279 279 279 279 278 278 278 278 278 277 277 276 276 275 275 274 274 273 273 272 272 271 271 271 271 271 271 270
278 278 278 278 278 278 277 277 277 277 277 277 277 277 277 277 278 277 277 277 277 278 278 278 278 278 278 278 278 278 279 279 279 279 279 279 279 279 279 279 279 279 279 279 279 279 279 279 278 278 278 278 278 278 278 278 278 278 278 278 278 278 278 277 277 277 277 276 276 276 275 275 275 274 274 273 273 272 272 271 271 271 271 271 270 270
278 278 278 278 278 277 277 277 277 277 277 277 277 278 278 278 278 278 278 278 278 278 278 278 278 279 279 279 279 278 278 278 279 279 279 279 279 279 279 279 279 279 279 279 279 279 279 278 278 278 278 278 278 278 278 278 278 278 277 277 277 277 277 276 276 276 276 275 275 275 275 274 274 274 273 273 272 272 271 271 270 270 270 270 270 270
278 278 278 278 278 278 278 278 278 278 278 278 278 278 278 278 279 279 279 279 279 279 279 279 279 279 279 279 279 279 278 278 278 278 278 279 279 279 279 279 279 279 279 279 279 279 278 278 278 278 278 278 277 277 277 277 277 277 277 276 276 276 275 275 275 275 275 274 274 274 274 273 273 273 272 272 272 271 271 270 270 270 269 269 269 269
278 278 278 278 278 278 278 278 278 278 278 279 279 279 279 279 279 279 279 279 279 279 279 279 279 279 279 279 279 278 278 278 278 278 279 279 279 279 279 279 279 279 279 279 279 278 278 278 278 278 278 278 277 277 277 277 277 276 276 276 275 275 275 275 274 274 274 274 273 273 273 273 273 272 272 272 271 271 270 270 269 269 269 269 269 269
279 279 279 279 279 279 279 279 279 279 279 279 279 279 279 279 279 279 279 279 279 279 279 279 279 279 279 279 279 279 278 279 279 279 279 279 279 279 279 279 279 279 279 279 278 278 278 278 278 278 278 277 277 277 277 277 276 276 276 276 275 275 275 274 274 274 274 273 273 273 273 273 272 272 272 272 271 271 270 270 269 269 269 268 268 268
280 280 280 280 280 280 280 280 280 279 279 279 279 279 279 279 279 279 279 279 279 279 279 279 279 279 279 279 279 279 279 279 279 279 279 279 279 279 279 279 279 279 279 278 278 278 278 278 278 278 278 277 277 277 277 277 276 276 276 275 275 275 275 274 274 274 273 273 273 273 273 272 272 272 272 272 271 271 270 270 270 269 269 268 268 268
280 281 281 281 281 280 280 280 280 280 280 280 280 280 280 280 279 279 279 279 279 279 279 279 279 279 279 279 279 279 279 279 279 279 279 279 279 279 279 279 279 278 278 278 278 278 278 278 278 278 278 277 277 277 277 276 276 276 275 275 275 275 274 274 274 273 273 273 273 272 272 272 272 272 271 271 271 271 270 270 270 269 269 268 268 267
281 281 281 281 281 281 281 280 280 280 280 280 280 280 280 280 280 280 280 280 280 280 280 280 280 280 280 280 280 280 280 279 279 279 279 279 279 279 279 279 278 278 278 278 278 278 278 278 278 278 278 277 277 277 277 276 276 276 275 275 275 274 274 274 273 273 273 272 272 272 272 271 271 271 271 271 270 270 270 269 269 269 268 268 268 267
281 281 281 281 281 281 281 281 281 281 281 281 281 281 280 281 281 280 280 280 280 280 280 280 280 280 280 280 280 280 280 280 280 280 280 280 279 279 279 278 278 278 278 278 278 278 278 278 277 277 277 277 277 277 276 276 276 275 275 274 274 274 273 273 273 272 272 272 271 271 271 271 270 270 270 270 270 269 269 269 269 268 268 268 267 267
281 281 281 281 281 281 281 281 281 281 281 281 281 281 281 281 281 281 281 281 281 281 281 281 281 281 281 280 280 280 280 280 280 279 280 280 279 279 278 278 278 278 278 278 278 277 277 277 277 277 277 277 277 276 276 276 275 275 275 274 274 273 273 272 272 272 271 271 271 270 270 270 270 269 269 269 269 269 268 268 268 268 267 267 267 266
281 281 281 281 281 281 281 281 281 281 281 281 281 281 281 281 281 281 281 281 281 281 281 281 281 281 281 281 280 280 280 280 280 280 280 279 279 279 278 278 278 278 278 277 277 277 277 277 277 277 276 276 276 276 276 275 275 275 274 274 273 273 272 272 271 271 271 270 270 270 270 269 269 269 269 268 268 268 268 268 267 267 267 266 266 266
282 282 282 282 282 282 282 282 282 282 282 282 282 282 282 282 282 282 282 282 282 282 282 282 282 281 281 281 281 281 280 280 280 280 279 279 279 278 278 278 278 278 277 277 277 277 276 276 276 276 276 276 276 276 275 275 275 275 274 274 273 273 272 272 271 271 270 270 270 269 269 269 269 268 268 268 268 268 267 267 267 267 266 266 266 266
283 283 283 283 283 283 283 283 283 283 283 283 282 282 282 282 282 282 282 282 282 282 282 282 282 281 281 281 281 281 280 280 280 279 279 279 278 278 278 278 277 277 277 277 276 276 276 276 276 276 276 275 275 275 275 275 275 274 274 274 273 273 272 272 271 271 270 270 270 269 269 269 268 268 268 268 267 267 267 267 266 266 266 266 265 265
284 284 284 284 284 283 283 283 283 283 283 283 283 283 283 283 283 283 282 282 282 282 282 282 281 281 281 281 281 280 280 280 279 279 278 278 278 278 277 277 276 276 276 276 276 276 275 275 275 275 275 275 275 275 275 274 274 274 274 273 273 273 272 272 272 271 271 270 270 269 269 269 268 268 268 267 267 267 267 266 266 266 266 265 265 265
284 284 284 284 284 284 284 284 283 283 283 283 283 283 283 283 283 282 282 282 282 282 281 281 281 281 281 280 280 279 279 279 279 278 278 278 277 277 277 276 276 276 276 276 275 275 275 275 275 275 274 274 274 274 274 274 274 273 273 273 273 273 272 272 272 271 271 270 270 269 269 269 268 268 267 267 267 266 266 266 266 265 265 265 265 265
285 285 285 285 285 284 284 284 284 284 283 283 283 283 283 282 282 282 282 281 281 281 281 281 280 280 280 280 279 279 279 278 278 278 277 277 277 276 276 276 276 275 275 275 275 275 275 274 274 274 274 274 274 273 273 273 273 273 273 273 272 272 272 272 272 271 271 270 270 269 269 268 268 267 267 267 266 266 265 265 265 265 265 264 264 264
286 286 286 285 285 285 285 284 284 284 284 283 283 283 283 282 282 281 281 281 281 281 280 280 280 279 279 279 279 278 278 278 277 277 277 276 276 276 276 275 275 275 275 274 274 274 274 274 273 273 273 273 273 273 273 273 272 272 272 272 272 272 271 271 271 271 270 270 270 269 269 268 268 267 267 266 266 265 265 265 264 264 264 264 264 264
286 286 286 285 285 285 284 284 284 284 283 283 283 282 282 282 281 281 281 280 280 280 279 279 279 278 278 278 278 277 277 276 276 276 276 276 275 275 275 275 275 274 274 274 274 273 273 273 273 273 272 272 272 272 272 272 272 272 271 271 271 271 271 271 270 270 270 269 269 269 268 268 267 267 266 266 265 265 264 264 264 264 263 263 263 263
285 285 285 285 284 284 284 283 283 283 282 282 282 281 281 281 281 280 280 280 279 279 278 278 278 278 277 277 277 276 276 276 275 275 275 275 274 274 274 274 274 274 273 273 273 273 273 273 272 272 272 272 271 271 271 271 271 271 271 271 271 270 270 270 270 269 269 269 268 268 267 267 267 266 266 265 265 264 264 264 263 263 263 263 263 263
285 284 284 284 284 283 283 283 282 282 282 281 281 281 281 280 280 280 279 279 279 278 278 278 277 277 277 276 276 276 275 275 275 275 275 274 274 274 274 274 273 273 273 273 272 272 272 272 272 272 271 271 271 271 271 270 270 270 270 270 270 270 270 269 269 269 268 268 268 267 267 267 266 266 265 265 264 264 264 263 263 263 263 262 262 262
285 284 284 284 284 283 283 283 283 282 282 282 281 281 281 280 280 280 280 279 279 279 278 278 278 277 277 277 276 276 275 275 275 275 274 274 274 274 274 274 273 273 273 273 272 272 272 271 271 271 271 271 271 270 270 270 270 270 269 269 269 269 269 269 269 268 268 268 267 267 266 266 266 265 265 265 264 264 263 263 263 262 262 262 262 262
285 285 285 284 284 284 284 283 283 283 282 282 282 282 281 281 281 281 280 280 280 279 279 278 278 278 277 277 277 276 276 276 275 275 275 275 274 274 274 274 274 273 273 273 273 272 272 272 271 271 271 270 270 270 270 270 269 269 269 269 269 268 268 268 268 268 268 267 267 267 266 266 265 265 265 264 264 264 263 263 262 262 262 261 261 261
286 285 285 285 285 284 284 284 284 283 283 283 282 282 282 282 281 281 281 280 280 280 279 279 278 278 278 277 277 277 276 276 276 276 275 275 275 275 274 274 274 274 274 273 273 273 272 272 272 271 271 270 270 270 269 269 268 268 268 268 268 268 267 267 267 267 267 267 267 266 266 265 265 265 264 264 264 263 263 262 262 262 261 261 261 260
286 286 286 285 285 285 284 284 284 284 283 283 283 282 282 282 281 281 281 281 280 280 280 279 279 278 278 278 277 277 277 276 276 276 276 276 275 275 275 275 274 274 274 274 273 273 273 272 272 271 271 270 270 269 269 268 268 268 267 267 267 267 267 266 266 266 266 266 266 266 265 265 265 264 264 264 263 263 262 262 262 261 261 260 260 260
287 286 286 286 285 285 285 285 284 284 284 283 283 283 282 282 282 281 281 281 280 280 280 279 279 279 278 278 277 277 277 277 277 276 276 276 276 275 275 275 275 274 274 274 273 273 273 272 272 271 271 270 269 269 268 268 268 267 267 266 266 266 266 266 265 265 265 265 265 265 264 264 264 264 263 263 263 262 262 261 261 261 260 260 259 259
288 287 287 286 286 286 285 285 285 284 284 284 283 283 283 282 282 282 281 281 281 280 280 280 279 279 279 278 278 277 277 277 277 277 277 276 276 276 276 275 275 275 274 274 273 273 273 272 272 271 271 270 269 269 268 268 267 267 267 266 266 266 265 265 265 265 264 264 264 264 264 263 263 263 263 262 262 262 261 261 260 260 260 259 259 258
288 288 288 287 287 286 286 286 285 285 285 284 284 283 283 283 282 282 282 281 281 281 280 280 280 279 279 279 278 278 278 278 277 277 277 277 277 276 276 276 275 275 274 274 273 273 272 272 271 271 270 270 269 269 268 268 268 267 267 266 266 266 265 265 264 264 264 264 264 263 263 263 263 262 262 262 261 261 261 260 260 259 259 259 258 258
289 288 288 288 287 287 287 286 286 285 285 285 284 284 284 283 283 283 282 282 281 281 281 281 280 280 280 279 279 279 278 278 278 278 277 277 277 277 276 276 276 275 275 274 274 273 272 272 271 271 270 270 270 269 269 268 268 267 267 267 266 266 265 265 264 264 264 264 263 263 263 263 262 262 262 261 261 261 260 260 259 259 258 258 257 257
289 289 288 288 288 287 287 287 286 286 286 285 285 285 284 284 283 283 283 282 282 282 281 281 281 281 280 280 280 279 279 279 279 278 278 278 277 277 277 276 276 275 275 274 274 273 273 272 272 271 271 270 270 269 269 269 268 267 267 266 266 266 265 265 265 264 264 263 263 263 263 262 262 262 261 261 261 260 260 259 259 258 258 257 257 256
290 289 289 289 288 288 287 287 287 286 286 286 285 285 285 284 284 284 283 283 283 283 282 282 282 281 281 281 281 280 280 280 279 279 279 278 278 278 277 277 276 276 275 275 274 274 273 273 272 272 271 270 270 269 269 269 268 267 267 266 266 266 265 265 264 264 264 263 263 262 262 262 262 261 261 261 260 260 259 259 258 258 257 257 256 255
290 290 289 289 289 288 288 288 287 287 287 286 286 286 285 285 285 284 284 284 284 283 283 283 283 282 282 282 282 281 281 281 280 280 279 279 279 278 278 277 277 276 276 275 275 275 274 274 273 272 272 271 270 270 269 268 268 267 267 266 266 266 265 265 264 264 264 263 263 262 262 261 261 261 260 260 260 259 259 258 257 257 256 256 255 254
291 291 290 290 289 289 289 288 288 288 287 287 287 286 286 286 285 285 285 284 284 284 284 284 283 283 283 283 282 282 282 281 281 281 280 280 279 279 278 278 277 277 276 276 276 275 275 274 273 273 272 271 271 270 269 268 268 268 267 267 266 266 265 265 264 264 263 263 262 262 261 261 260 260 260 259 259 258 258 257 256 256 255 255 254 253
292 292 291 291 291 290 290 289 289 289 288 288 287 287 287 286 286 286 285 285 285 285 285 284 284 284 283 283 283 283 282 282 282 281 281 281 280 280 279 279 278 278 277 276 276 275 275 274 274 273 273 272 271 270 270 269 268 268 267 267 266 266 265 265 264 264 263 263 262 261 261 260 260 259 259 258 258 257 257 256 256 255 254 254 253 252
293 293 292 292 292 291 291 290 290 290 289 289 288 288 288 287 287 287 286 286 286 286 285 285 285 284 284 284 284 283 283 283 282 282 282 281 281 280 280 279 278 278 277 277 276 276 275 275 274 274 273 273 272 271 270 270 269 268 268 267 267 266 265 265 264 264 263 263 262 261 261 260 259 259 258 258 257 256 256 255 255 254 254 253 252 252
294 293 293 293 292 292 292 291 291 291 290 290 290 289 289 288 288 288 287 287 287 286 286 286 286 285 285 284 284 284 284 283 283 283 282 282 281 281 280 280 279 278 278 277 277 276 276 275 275 274 274 273 272 272 271 270 270 269 268 268 267 266 265 265 264 263 263 262 262 261 260 260 259 258 257 257 256 256 255 254 254 253 253 252 251 251
294 294 293 293 293 292 292 292 292 291 291 291 291 290 290 290 289 289 289 288 288 288 287 287 286 286 286 285 285 285 285 284 284 284 283 282 282 281 281 280 280 279 278 278 277 277 276 276 275 274 274 273 273 272 272 271 270 269 269 268 267 266 265 265 264 263 262 262 261 261 260 259 258 258 257 256 256 255 254 254 253 252 252 251 251 250
294 294 294 293 293 293 293 292 292 292 292 291 291 291 291 290 290 290 290 289 289 288 288 288 287 287 287 286 286 286 285 285 285 284 284 284 283 282 282 281 281 280 279 279 278 277 276 276 275 274 274 273 273 272 272 271 270 270 269 268 267 266 265 264 264 263 262 262 261 261 260 259 258 257 257 256 255 255 254 253 252 252 251 250 250 249
295 295 294 294 294 293 293 293 293 293 292 292 292 292 291 291 291 291 290 290 290 289 289 289 288 288 288 287 287 287 286 286 286 286 285 285 285 284 283 283 282 281 280 279 279 278 277 276 275 275 274 273 273 272 272 271 270 269 268 268 267 266 265 264 264 263 263 262 262 261 260 259 258 257 256 256 255 254 254 253 252 251 250 250 249 248
296 296 295 295 294 294 294 294 294 293 293 293 293 292 292 292 292 291 291 291 290 290 290 289 289 289 289 288 288 288 288 287 287 287 287 286 286 285 285 284 283 282 282 281 280 279 278 277 276 275 274 274 273 272 272 271 270 269 268 267 267 266 265 265 264 264 263 263 262 261 260 259 258 257 256 255 254 254 253 252 251 251 250 249 248 247
Height
10539 10537 10536 10536 10535 10533 10531 10529 10528 10528 10526 10524 10523 10523 10522 10521 10520 10519 10517 10517 10516 10516 10514 10514 10513 10513 10512 10512 10511 10509 10509 10509 10509 10509 10510 10511 10511 10510 10509 10506 10504 10501 10499 10496 10494 10494 10494 10493 10493 10494 10494 10495 10496 10496 10496 10495 10495 10494 10494 10494 10494 10494 10495 10496 10497 10497 10497 10497 10497 10496 10496 10495 10495 10495 10496 10496 10497 10499 10499 10500 10501 10501 10501 10502 10503 10504
10531 10529 10527 10526 10525 10524 10521 10519 10519 10519 10517 10515 10514 10513 10513 10512 10511 10509 10509 10508 10507 10506 10506 10504 10504 10503 10502 10502 10501 10501 10500 10500 10501 10501 10502 10502 10501 10500 10499 10497 10496 10494 10493 10492 10490 10489 10488 10487 10487 10487 10487 10487 10487 10488 10488 10487 10487 10487 10487 10487 10487 10487 10487 10488 10489 10490 10490 10491 10491 10490 10489 10489 10489 10489 10489 10490 10491 10492 10493 10494 10494 10495 10496 10496 10497 10497
10521 10520 10517 10516 10516 10515 10512 10510 10509 10509 10508 10506 10505 10504 10504 10503 10502 10501 10499 10499 10498 10497 10497 10496 10495 10494 10494 10492 10492 10492 10491 10491 10491 10492 10492 10492 10492 10491 10490 10489 10489 10488 10487 10486 10485 10484 10483 10482 10481 10481 10481 10480 10480 10481 10481 10480 10480 10479 10479 10479 10479 10479 10480 10481 10482 10482 10483 10484 10484 10484 10484 10483 10483 10483 10483 10484 10485 10486 10487 10487 10489 10489 10489 10490 10491 10492
10514 10512 10509 10507 10507 10506 10504 10502 10501 10500 10499 10497 10497 10496 10495 10494 10492 10491 10490 10490 10489 10488 10487 10487 10486 10486 10485 10484 10484 10483 10482 10482 10482 10482 10483 10483 10483 10482 10481 10481 10481 10480 10480 10479 10479 10478 10477 10477 10476 10475 10474 10474 10474 10474 10473 10473 10473 10472 10472 10472 10472 10472 10472 10474 10474 10476 10476 10477 10477 10477 10477 10477 10477 10477 10477 10478 10479 10479 10481 10481 10482 10483 10484 10484 10485 10486
10505 10504 10501 10499 10498 10497 10494 10493 10492 10492 10491 10489 10488 10487 10487 10486 10484 10482 10481 10481 10480 10479 10479 10478 10477 10477 10477 10476 10475 10474 10474 10473 10472 10472 10473 10474 10474 10474 10474 10473 10472 10472 10471 10471 10471 10471 10471 10471 10470 10469 10468 10467 10467 10467 10466 10466 10466 10466 10465 10465 10464 10464 10465 10466 10467 10468 10469 10470 10471 10471 10471 10471 10471 10471 10472 10472 10472 10473 10474 10476 10476 10477 10478 10479 10480 10481
10496 10496 10494 10492 10490 10488 10486 10485 10484 10483 10482 10481 10479 10479 10478 10477 10476 10474 10472 10472 10471 10470 10469 10469 10468 10468 10467 10467 10466 10466 10465 10464 10464 10463 10463 10464 10464 10466 10466 10466 10464 10464 10463 10463 10463 10463 10462 10462 10462 10462 10461 10461 10460 10459 10459 10459 10459 10459 10458 10457 10457 10457 10457 10459 10460 10461 10462 10463 10464 10464 10465 10465 10466 10466 10466 10466 10467 10467 10468 10469 10471 10471 10472 10473 10474 10475
10487 10487 10486 10484 10482 10480 10479 10477 10476 10475 10474 10472 10471 10469 10469 10467 10467 10466 10464 10462 10462 10461 10460 10459 10459 10458 10458 10457 10457 10456 10456 10455 10454 10454 10454 10454 10454 10455 10456 10457 10457 10456 10456 10455 10455 10454 10454 10454 10454 10454 10454 10452 10452 10452 10452 10451 10451 10451 10451 10451 10451 10451 10451 10451 10452 10453 10454 10456 10457 10457 10458 10459 10459 10460 10460 10461 10461 10461 10462 10463 10464 10466 10467 10467 10469 10469
10479 10477 10477 10476 10474 10472 10471 10469 10468 10467 10466 10465 10463 10461 10460 10459 10457 10456 10455 10454 10453 10452 10451 10451 10449 10448 10448 10447 10447 10447 10446 10446 10446 10445 10444 10444 10444 10444 10446 10447 10447 10447 10447 10447 10447 10447 10446 10446 10446 10446 10445 10444 10444 10444 10444 10444 10444 10443 10443 10443 10443 10443 10444 10444 10445 10446 10447 10448 10449 10450 10451 10452 10452 10453 10454 10454 10455 10455 10456 10457 10458 10459 10461 10462 10462 10464
10472 10470 10468 10467 10466 10465 10463 10461 10459 10458 10459 10457 10455 10453 10452 10450 10448 10446 10446 10445 10444 10443 10442 10442 10441 10439 10438 10437 10437 10437 10437 10436 10436 10436 10435 10434 10434 10434 10435 10436 10437 10438 10439 10439 10439 10439 10438 10438 10437 10437 10437 10436 10436 10436 10436 10436 10436 10436 10436 10436 10436 10436 10437 10437 10438 10439 10440 10441 10442 10443 10444 10445 10446 10447 10447 10448 10449 10449 10450 10451 10451 10452 10454 10456 10457 10457
10463 10462 10460 10458 10457 10456 10455 10452 10449 10448 10449 10448 10446 10444 10443 10442 10440 10438 10436 10436 10434 10434 10434 10433 10432 10431 10429 10428 10428 10428 10428 10427 10427 10426 10426 10426 10426 10425 10426 10426 10427 10428 10429 10430 10430 10430 10430 10429 10429 10429 10428 10428 10428 10428 10427 10427 10427 10427 10427 10428 10428 10429 10429 10430 10431 10431 10432 10434 10434 10436 10437 10437 10439 10440 10441 10442 10442 10443 10444 10444 10445 10446 10447 10449 10450 10451
10454 10453 10452 10451 10449 10447 10446 10444 10441 10439 10439 10438 10436 10434 10432 10432 10432 10431 10429 10426 10425 10424 10424 10424 10423 10422 10422 10420 10419 10418 10419 10419 10418 10417 10417 10417 10417 10417 10417 10417 10417 10419 10419 10420 10421 10421 10421 10421 10420 10420 10419 10419 10419 10419 10419 10419 10419 10419 10419 10420 10421 10421 10422 10422 10423 10424 10425 10426 10427 10428 10429 10431 10431 10432 10433 10434 10436 10436 10437 10437 10438 10439 10440 10442 10443 10445
10446 10444 10444 10442 10440 10438 10436 10434 10432 10431 10429 10427 10425 10422 10421 10421 10422 10422 10421 10419 10417 10416 10416 10414 10414 10414 10414 10412 10411 10410 10409 10409 10409 10409 10408 10408 10408 10407 10408 10408 10409 10409 10410 10411 10411 10411 10411 10411 10411 10411 10411 10411 10411 10411 10411 10411 10411 10411 10412 10412 10413 10414 10414 10415 10416 10416 10417 10418 10419 10420 10421 10422 10424 10425 10426 10427 10428 10429 10430 10431 10432 10432 10434 10435 10436 10438
10437 10436 10434 10432 10431 10428 10426 10424 10422 10421 10419 10417 10416 10414 10411 10411 10411 10412 10412 10410 10409 10408 10407 10407 10406 10404 10404 10404 10404 10402 10401 10401 10400 10399 10399 10399 10399 10399 10399 10399 10399 10400 10400 10401 10401 10401 10401 10401 10401 10401 10401 10401 10401 10401 10402 10402 10403 10404 10404 10405 10406 10406 10407 10407 10408 10409 10409 10410 10411 10412 10414 10415 10416 10417 10419 10420 10421 10422 10424 10424 10426 10426 10427 10428 10429 10431
10427 10426 10425 10422 10421 10418 10417 10415 10413 10411 10409 10407 10406 10405 10403 10402 10402 10402 10402 10401 10399 10399 10400 10399 10397 10396 10395 10394 10394 10393 10393 10392 10391 10391 10391 10390 10390 10390 10391 10391 10390 10391 10391 10391 10391 10390 10391 10391 10391 10391 10392 10392 10392 10392 10393 10394 10395 10396 10396 10397 10398 10399 10399 10400 10401 10401 10402 10402 10404 10405 10406 10407 10409 10410 10411 10412 10414 10416 10417 10418 10419 10420 10421 10422 10422 10424
10419 10417 10415 10412 10411 10409 10407 10406 10404 10402 10400 10399 10397 10397 10396 10394 10394 10393 10392 10391 10391 10391 10391 10391 10389 10387 10386 10385 10384 10384 10384 10383 10382 10382 10382 10381 10381 10381 10382 10382 10381 10381 10381 10381 10381 10380 10380 10381 10381 10381 10382 10382 10383 10384 10385 10386 10387 10387 10389 10389 10390 10391 10392 10392 10393 10394 10395 10396 10396 10397 10399 10400 10401 10403 10404 10406 10407 10408 10410 10411 10412 10413 10414 10415 10416 10417
10409 10407 10406 10404 10402 10400 10398 10397 10396 10394 10392 10391 10389 10389 10387 10386 10385 10384 10384 10382 10382 10381 10382 10381 10380 10379 10377 10376 10375 10374 10374 10373 10373 10373 10374 10373 10372 10371 10372 10372 10372 10371 10371 10371 10371 10370 10370 10371 10371 10371 10372 10373 10374 10374 10376 10377 10378 10379 10380 10381 10382 10383 10384 10384 10386 10386 10387 10388 10389 10390 10391 10392 10394 10395 10396 10398 10399 10401 10402 10404 10405 10406 10407 10408 10409 10410
10401 10399 10397 10395 10393 10392 10390 10389 10387 10386 10383 10382 10381 10380 10379 10377 10376 10375 10375 10374 10372 10372 10372 10371 10371 10370 10369 10367 10365 10364 10365 10365 10364 10364 10365 10365 10363 10362 10363 10364 10362 10361 10361 10361 10361 10360 10360 10361 10361 10361 10362 10364 10365 10366 10367 10367 10369 10370 10371 10372 10373 10374 10375 10376 10377 10378 10379 10380 10381 10382 10383 10384 10386 10387 10388 10389 10391 10392 10394 10395 10397 10398 10399 10401 10402 10402
10392 10391 10389 10387 10385 10383 10382 10381 10378 10376 10374 10374 10372 10371 10370 10369 10367 10367 10366 10364 10364 10363 10362 10362 10362 10361 10361 10359 10356 10354 10355 10357 10356 10355 10356 10356 10354 10353 10354 10354 10353 10351 10351 10351 10351 10350 10350 10351 10351 10352 10353 10354 10356 10356 10357 10359 10359 10361 10362 10362 10364 10364 10366 10367 10368 10369 10370 10371 10372 10373 10374 10376 10376 10377 10379 10381 10382 10383 10385 10386 10388 10389 10391 10392 10394 10395
10384 10382 10381 10379 10377 10375 10373 10371 10369 10367 10366 10364 10363 10362 10362 10359 10359 10358 10357 10356 10355 10354 10354 10354 10353 10352 10351 10350 10347 10346 10346 10348 10347 10346 10346 10347 10346 10345 10344 10345 10344 10342 10341 10342 10341 10341 10341 10341 10341 10342 10344 10344 10346 10347 10347 10349 10350 10351 10352 10353 10354 10355 10356 10357 10359 10360 10361 10362 10363 10364 10366 10366 10367 10369 10370 10371 10373 10374 10376 10377 10379 10381 10382 10384 10386 10387
10376 10374 10372 10370 10368 10366 10364 10361 10360 10358 10357 10356 10355 10354 10352 10351 10349 10349 10348 10346 10346 10346 10345 10345 10344 10342 10342 10341 10339 10337 10337 10339 10339 10337 10337 10338 10338 10337 10335 10335 10334 10332 10332 10332 10332 10332 10331 10331 10331 10332 10333 10334 10335 10336 10337 10339 10340 10341 10342 10344 10345 10346 10347 10348 10349 10351 10352 10353 10354 10356 10356 10357 10359 10360 10361 10362 10364 10366 10367 10369 10370 10372 10374 10376 10377 10379
10369 10366 10363 10362 10361 10358 10355 10352 10351 10350 10348 10347 10346 10345 10343 10342 10341 10340 10338 10337 10337 10337 10336 10336 10335 10334 10333 10333 10331 10329 10328 10331 10331 10329 10327 10329 10329 10327 10326 10326 10325 10324 10322 10322 10323 10323 10322 10322 10322 10322 10323 10324 10324 10326 10327 10328 10330 10331 10332 10334 10335 10336 10337 10338 10339 10341 10342 10344 10345 10346 10347 10349 10350 10351 10352 10354 10355 10357 10358 10360 10361 10363 10365 10367 10368 10370
10361 10357 10355 10354 10352 10350 10347 10344 10342 10341 10340 10339 10337 10335 10333 10333 10332 10331 10329 10328 10328 10327 10326 10326 10325 10325 10325 10324 10322 10319 10319 10321 10321 10320 10319 10320 10319 10317 10315 10316 10316 10314 10312 10312 10314 10314 10313 10312 10312 10312 10314 10314 10314 10315 10316 10317 10319 10321 10322 10323 10324 10326 10327 10328 10330 10331 10332 10334 10336 10337 10338 10339 10341 10342 10344 10345 10346 10348 10349 10351 10352 10354 10356 10357 10359 10361
10352 10349 10347 10345 10343 10341 10339 10336 10334 10332 10331 10330 10328 10326 10324 10324 10323 10322 10319 10319 10319 10318 10317 10316 10316 10316 10316 10314 10312 10310 10309 10310 10311 10311 10311 10310 10307 10306 10306 10307 10307 10305 10302 10302 10304 10304 10304 10303 10302 10303 10304 10304 10304 10305 10306 10307 10308 10309 10311 10312 10313 10314 10316 10317 10319 10321 10322 10324 10326 10327 10329 10330 10331 10332 10334 10336 10337 10339 10341 10342 10343 10345 10347 10348 10351 10352
10342 10340 10337 10336 10334 10332 10330 10327 10326 10324 10322 10320 10318 10316 10315 10314 10314 10312 10311 10310 10309 10308 10307 10306 10306 10306 10304 10303 10302 10301 10299 10299 10300 10301 10301 10298 10296 10296 10296 10297 10297 10294 10292 10292 10294 10296 10295 10293 10292 10292 10294 10294 10294 10294 10295 10296 10297 10297 10299 10299 10301 10302 10304 10306 10307 10310 10312 10314 10316 10317 10319 10320 10322 10323 10325 10327 10328 10330 10331 10332 10334 10336 10337 10339 10341 10343
10333 10331 10329 10327 10325 10323 10321 10319 10317 10315 10313 10311 10309 10307 10306 10305 10304 10303 10302 10301 10299 10298 10297 10297 10296 10295 10293 10293 10293 10292 10289 10287 10289 10290 10289 10286 10285 10286 10287 10287 10287 10284 10282 10281 10282 10286 10286 10284 10282 10282 10284 10284 10284 10283 10284 10285 10286 10286 10286 10287 10288 10289 10291 10293 10296 10298 10300 10302 10305 10307 10309 10310 10312 10314 10316 10317 10319 10320 10322 10323 10324 10326 10327 10329 10331 10334
10324 10322 10320 10318 10316 10314 10312 10310 10308 10306 10304 10302 10300 10298 10296 10296 10296 10295 10293 10291 10289 10289 10288 10287 10286 10284 10284 10285 10284 10282 10279 10277 10277 10278 10277 10276 10275 10275 10275 10275 10275 10274 10272 10270 10271 10274 10276 10274 10272 10272 10274 10274 10273 10272 10273 10274 10274 10274 10274 10274 10275 10276 10278 10280 10282 10286 10288 10291 10293 10295 10297 10299 10301 10304 10306 10307 10309 10311 10312 10313 10314 10316 10317 10319 10321 10324
10315 10313 10311 10309 10307 10305 10303 10301 10299 10296 10294 10292 10291 10289 10287 10287 10287 10286 10283 10280 10279 10280 10280 10278 10275 10273 10274 10275 10274 10272 10269 10267 10267 10266 10264 10264 10265 10264 10262 10262 10263 10264 10263 10259 10259 10262 10266 10265 10263 10262 10263 10264 10263 10262 10262 10262 10262 10262 10262 10262 10263 10264 10265 10267 10270 10272 10275 10278 10281 10283 10286 10287 10290 10292 10294 10297 10299 10300 10301 10302 10304 10306 10307 10309 10311 10314
10306 10304 10301 10299 10297 10295 10293 10291 10289 10287 10285 10283 10281 10279 10277 10277 10277 10276 10272 10269 10269 10271 10271 10267 10264 10263 10264 10264 10262 10261 10259 10258 10256 10252 10250 10252 10254 10252 10248 10248 10252 10255 10253 10249 10247 10250 10254 10255 10254 10252 10252 10253 10253 10252 10252 10251 10251 10250 10250 10250 10251 10252 10253 10255 10257 10259 10262 10265 10267 10270 10272 10275 10277 10280 10282 10285 10287 10289 10291 10292 10293 10294 10296 10299 10301 10304
10296 10294 10291 10289 10287 10285 10283 10281 10279 10277 10274 10272 10271 10268 10267 10266 10266 10264 10261 10258 10259 10261 10260 10256 10252 10252 10254 10252 10251 10249 10249 10247 10242 10239 10238 10241 10242 10239 10234 10236 10241 10244 10241 10237 10236 10239 10242 10242 10242 10242 10242 10242 10242 10241 10241 10241 10239 10238 10238 10238 10239 10239 10241 10243 10245 10247 10249 10251 10254 10256 10259 10262 10264 10267 10270 10272 10275 10277 10279 10280 10282 10283 10286 10288 10291 10294
10286 10284 10282 10279 10277 10275 10273 10271 10269 10266 10264 10262 10260 10257 10256 10254 10254 10253 10251 10249 10248 10249 10248 10244 10242 10241 10242 10242 10241 10239 10236 10232 10229 10227 10228 10231 10229 10224 10221 10224 10229 10231 10227 10224 10227 10229 10229 10228 10229 10232 10233 10232 10230 10229 10230 10229 10228 10226 10226 10226 10226 10227 10228 10230 10232 10234 10236 10237 10239 10242 10245 10247 10251 10253 10256 10259 10262 10264 10266 10268 10270 10272 10274 10277 10281 10283
10277 10274 10272 10269 10267 10265 10263 10261 10259 10256 10254 10252 10249 10247 10245 10243 10242 10241 10239 10238 10237 10237 10236 10234 10231 10230 10230 10230 10229 10227 10223 10218 10215 10215 10218 10220 10217 10211 10207 10211 10217 10217 10213 10212 10215 10219 10218 10214 10214 10219 10223 10222 10219 10217 10217 10217 10217 10215 10213 10212 10213 10214 10215 10216 10218 10220 10222 10224 10226 10228 10231 10233 10236 10239 10242 10245 10248 10251 10253 10255 10257 10260 10263 10266 10269 10272
10269 10266 10262 10259 10257 10255 10252 10251 10248 10246 10243 10241 10238 10236 10234 10232 10230 10229 10227 10226 10225 10224 10224 10222 10220 10218 10217 10217 10217 10214 10211 10205 10202 10202 10205 10207 10205 10200 10196 10199 10203 10205 10201 10197 10201 10207 10209 10204 10201 10204 10209 10211 10208 10205 10203 10204 10205 10204 10201 10200 10200 10201 10201 10201 10203 10206 10207 10209 10211 10213 10216 10219 10221 10224 10227 10231 10234 10237 10239 10242 10245 10248 10251 10255 10258 10261
10259 10256 10252 10250 10247 10244 10242 10239 10236 10234 10231 10229 10226 10224 10222 10219 10218 10216 10214 10213 10212 10211 10210 10209 10207 10205 10203 10202 10202 10201 10198 10194 10191 10189 10191 10192 10192 10189 10185 10186 10189 10191 10188 10185 10186 10191 10195 10194 10191 10191 10194 10196 10196 10193 10191 10191 10191 10191 10189 10187 10187 10187 10187 10187 10188 10191 10192 10194 10196 10198 10201 10204 10207 10209 10213 10216 10219 10222 10226 10229 10232 10236 10239 10242 10246 10249
10249 10246 10242 10239 10236 10234 10231 10227 10224 10222 10219 10217 10214 10211 10209 10207 10205 10203 10201 10199 10198 10197 10196 10195 10194 10192 10191 10189 10187 10186 10184 10180 10177 10176 10176 10178 10178 10176 10174 10173 10175 10176 10176 10172 10172 10175 10178 10179 10180 10180 10180 10181 10181 10181 10179 10177 10176 10175 10174 10174 10174 10174 10173 10172 10174 10176 10177 10178 10180 10182 10187 10189 10192 10195 10198 10202 10205 10208 10212 10215 10219 10222 10226 10230 10234 10237
10238 10234 10231 10228 10226 10222 10219 10216 10212 10210 10207 10205 10202 10199 10197 10195 10192 10190 10188 10186 10184 10183 10182 10181 10180 10179 10177 10176 10173 10171 10168 10165 10163 10162 10163 10164 10164 10163 10162 10161 10161 10162 10161 10160 10160 10160 10161 10163 10165 10166 10166 10167 10167 10166 10164 10162 10162 10161 10160 10160 10161 10161 10160 10159 10159 10161 10162 10163 10165 10167 10171 10174 10177 10180 10183 10187 10190 10193 10197 10201 10204 10208 10212 10216 10220 10224
10227 10223 10220 10217 10214 10211 10208 10204 10201 10198 10196 10193 10190 10187 10185 10182 10181 10177 10175 10173 10171 10169 10168 10166 10165 10164 10163 10162 10160 10157 10155 10152 10150 10149 10150 10151 10151 10150 10149 10149 10149 10148 10147 10147 10147 10147 10146 10148 10150 10151 10151 10151 10151 10150 10147 10146 10146 10147 10147 10146 10146 10146 10146 10146 10146 10146 10147 10149 10151 10152 10155 10158 10161 10164 10168 10171 10174 10178 10182 10186 10189 10193 10197 10201 10206 10210
10216 10212 10208 10206 10202 10200 10197 10193 10189 10187 10184 10181 10178 10176 10173 10171 10168 10166 10162 10160 10158 10156 10155 10153 10151 10150 10149 10147 10146 10144 10142 10141 10138 10137 10137 10137 10137 10137 10137 10136 10136 10135 10134 10134 10134 10133 10132 10134 10135 10136 10135 10135 10135 10134 10133 10131 10131 10132 10134 10132 10131 10131 10131 10133 10133 10133 10133 10135 10137 10138 10140 10143 10146 10150 10153 10156 10159 10162 10167 10171 10174 10178 10182 10186 10191 10195
10204 10201 10197 10194 10191 10188 10185 10182 10178 10175 10172 10169 10167 10164 10161 10159 10156 10153 10151 10148 10146 10144 10142 10140 10138 10136 10135 10134 10132 10131 10130 10129 10127 10126 10125 10124 10124 10124 10124 10124 10123 10122 10121 10121 10121 10121 10120 10120 10121 10121 10119 10119 10119 10119 10119 10118 10117 10118 10118 10118 10117 10117 10118 10119 10119 10119 10119 10121 10123 10125 10126 10129 10132 10135 10138 10141 10144 10148 10152 10156 10159 10163 10167 10171 10175 10179
10192 10189 10186 10182 10179 10176 10174 10170 10167 10164 10161 10158 10155 10152 10149 10147 10144 10141 10139 10136 10134 10132 10130 10128 10126 10124 10122 10120 10119 10118 10117 10117 10116 10114 10114 10112 10112 10112 10112 10111 10110 10109 10108 10108 10108 10108 10107 10107 10107 10106 10106 10105 10104 10105 10105 10105 10105 10104 10104 10104 10104 10105 10106 10105 10105 10105 10107 10109 10111 10112 10113 10116 10118 10121 10124 10127 10130 10134 10137 10141 10145 10148 10152 10156 10160 10164
10182 10178 10174 10171 10168 10165 10162 10159 10156 10152 10150 10147 10144 10141 10139 10136 10132 10130 10127 10124 10122 10121 10118 10116 10114 10112 10110 10108 10107 10106 10106 10105 10104 10104 10102 10101 10101 10100 10099 10099 10098 10097 10096 10096 10095 10095 10094 10094 10094 10093 10094 10093 10092 10092 10092 10092 10092 10091 10091 10091 10091 10091 10091 10091 10092 10094 10095 10097 10098 10099 10101 10103 10106 10108 10111 10114 10117 10121 10124 10128 10131 10134 10138 10142 10146 10149
10171 10167 10164 10161 10157 10154 10151 10148 10145 10142 10139 10136 10133 10131 10127 10125 10122 10119 10116 10113 10111 10109 10107 10106 10103 10101 10099 10097 10096 10095 10094 10094 10093 10092 10092 10091 10089 10089 10088 10087 10087 10086 10084 10084 10082 10082 10082 10081 10081 10081 10081 10081 10081 10081 10081 10079 10079 10079 10079 10079 10079 10079 10079 10079 10081 10082 10083 10084 10086 10087 10090 10092 10094 10096 10099 10102 10104 10107 10111 10115 10118 10121 10124 10128 10132 10136
10161 10157 10154 10151 10147 10144 10141 10138 10135 10132 10129 10126 10123 10120 10117 10114 10112 10109 10106 10102 10100 10098 10097 10095 10093 10091 10087 10086 10084 10084 10084 10083 10082 10081 10081 10080 10079 10079 10077 10076 10075 10074 10073 10072 10071 10070 10069 10069 10069 10069 10069 10069 10070 10070 10069 10067 10067 10066 10067 10067 10067 10067 10068 10068 10069 10069 10071 10072 10074 10077 10079 10080 10082 10084 10087 10090 10092 10096 10099 10102 10105 10107 10111 10114 10117 10121
10151 10147 10144 10141 10137 10134 10131 10128 10125 10122 10119 10116 10114 10111 10108 10105 10102 10099 10096 10093 10091 10088 10087 10085 10083 10081 10078 10076 10074 10073 10073 10072 10072 10071 10070 10069 10068 10067 10066 10065 10064 10063 10062 10062 10061 10059 10058 10058 10058 10057 10057 10058 10059 10059 10057 10056 10056 10055 10056 10056 10057 10057 10057 10056 10056 10057 10060 10062 10064 10065 10067 10069 10071 10074 10076 10079 10082 10084 10086 10089 10092 10094 10097 10100 10104 10107
10141 10138 10135 10131 10128 10125 10122 10119 10116 10112 10110 10107 10104 10101 10099 10096 10093 10090 10087 10084 10081 10079 10077 10076 10074 10071 10069 10067 10064 10063 10062 10062 10061 10061 10060 10059 10058 10057 10056 10055 10054 10053 10052 10051 10050 10049 10047 10047 10047 10046 10046 10047 10047 10047 10046 10046 10045 10044 10044 10045 10046 10047 10047 10046 10046 10047 10050 10051 10052 10054 10057 10059 10061 10064 10066 10069 10070 10072 10074 10076 10079 10081 10084 10087 10091 10095
10132 10128 10125 10122 10119 10116 10112 10109 10106 10103 10101 10097 10095 10092 10089 10087 10084 10081 10078 10076 10073 10071 10069 10067 10065 10062 10060 10057 10056 10054 10052 10051 10051 10051 10051 10049 10049 10047 10046 10045 10044 10043 10042 10041 10040 10039 10037 10036 10036 10035 10036 10036 10036 10036 10035 10035 10035 10034 10035 10035 10036 10037 10037 10036 10037 10037 10039 10040 10042 10044 10047 10049 10052 10054 10056 10057 10059 10060 10062 10064 10067 10069 10072 10076 10079 10082
10122 10119 10116 10112 10109 10106 10103 10100 10097 10094 10091 10089 10086 10084 10081 10078 10076 10072 10070 10067 10065 10062 10061 10059 10057 10054 10051 10049 10047 10046 10044 10042 10041 10041 10041 10040 10039 10038 10037 10036 10034 10033 10032 10031 10031 10029 10029 10027 10026 10026 10026 10026 10026 10025 10025 10025 10025 10025 10026 10026 10027 10027 10027 10027 10027 10027 10028 10030 10032 10034 10037 10040 10042 10044 10046 10047 10048 10049 10051 10054 10056 10059 10061 10064 10067 10071
10115 10111 10107 10104 10101 10097 10094 10091 10089 10086 10082 10080 10077 10075 10072 10070 10067 10064 10062 10059 10057 10055 10052 10050 10048 10046 10043 10041 10039 10037 10035 10034 10032 10032 10031 10031 10029 10029 10027 10026 10026 10024 10024 10022 10021 10021 10019 10019 10017 10017 10016 10016 10016 10016 10016 10016 10016 10016 10016 10017 10017 10017 10017 10017 10017 10018 10019 10021 10022 10025 10027 10031 10033 10034 10036 10037 10038 10040 10041 10044 10046 10048 10051 10054 10057 10061
10107 10104 10100 10097 10093 10090 10087 10084 10081 10077 10074 10072 10069 10067 10064 10062 10059 10056 10054 10052 10049 10047 10044 10042 10040 10038 10036 10033 10031 10029 10027 10026 10024 10023 10022 10021 10021 10020 10019 10018 10017 10016 10015 10014 10013 10012 10011 10010 10009 10009 10008 10007 10007 10006 10007 10007 10007 10007 10007 10008 10008 10008 10007 10007 10008 10009 10010 10012 10014 10016 10019 10022 10024 10025 10026 10027 10029 10030 10032 10034 10036 10039 10041 10044 10047 10051
10101 10097 10093 10089 10086 10082 10079 10076 10073 10071 10067 10064 10062 10059 10057 10054 10052 10049 10046 10044 10041 10039 10037 10034 10032 10030 10028 10026 10024 10022 10020 10018 10016 10015 10014 10013 10012 10011 10011 10010 10009 10008 10007 10006 10005 10004 10003 10002 10001 10000 10000 10000 9999 9999 9999 9999 9999 9999 9999 9999 9999 9999 9999 9999 9999 10001 10002 10004 10006 10008 10011 10013 10015 10017 10018 10019 10020 10021 10022 10025 10027 10030 10032 10036 10038 10041
10094 10091 10087 10083 10079 10076 10072 10069 10066 10063 10061 10057 10055 10052 10049 10047 10045 10042 10039 10037 10034 10032 10029 10027 10025 10022 10021 10018 10016 10014 10012 10011 10009 10007 10006 10006 10004 10004 10002 10002 10001 10000 9999 9998 9997 9996 9995 9994 9993 9992 9992 9992 9992 9992 9992 9991 9991 9990 9990 9990 9990 9991 9991 9991 9992 9993 9994 9996 9999 10001 10003 10005 10007 10009 10010 10011 10012 10013 10015 10017 10019 10021 10024 10027 10030 10033
10087 10084 10080 10076 10073 10069 10066 10063 10060 10057 10054 10051 10048 10046 10043 10041 10038 10035 10032 10030 10027 10025 10022 10020 10018 10016 10014 10011 10009 10007 10006 10004 10002 10001 9999 9999 9997 9996 9995 9994 9993 9992 9991 9990 9989 9988 9987 9986 9986 9985 9985 9985 9986 9985 9984 9984 9982 9982 9982 9982 9982 9982 9983 9984 9985 9986 9988 9990 9992 9994 9996 9997 9999 10001 10002 10004 10004 10006 10007 10009 10011 10013 10016 10019 10022 10025